CAPE
282 255 87 71 26 99 402 788 922 1041 1111 1072 1077 1293 1555 1635 1401 1364 1356 1046 911 781 676 609 539 158 55 42 37 141 82 108 106 125 159 160 202 286 498 651 487 396 397
269 214 90 0 0 0 22 530 783 1034 991 929 913 1053 1288 1671 1799 1787 1219 1558 972 714 769 644 325 54 97 86 173 94 149 175 174 140 133 146 162 160 206 326 430 519 589
314 366 89 0 0 0 31 488 737 811 893 864 854 1242 1459 1527 1362 1696 1827 1514 1377 763 676 416 207 75 219 271 225 215 170 143 77 77 20 3 6 25 50 60 191 306 410
321 264 92 4 0 0 0 0 378 687 714 748 922 1343 1201 1476 1255 1231 1322 1347 1063 988 646 320 165 67 324 560 478 218 44 0 0 0 0 0 0 0 0 0 1 22 58
124 159 61 23 50 92 75 295 324 604 525 753 923 1078 1586 1478 1386 1070 1126 1338 1262 647 696 236 128 157 328 427 299 122 0 0 0 0 0 0 0 0 0 1 2 4 9
564 393 374 331 427 687 964 1115 1279 1022 1006 1228 1183 842 1024 1109 1015 1086 1093 1220 1092 1067 575 481 121 39 77 101 10 0 0 0 0 0 0 0 0 0 0 0 1 3 4
1222 1169 1124 1074 1231 1487 1496 1554 1677 1797 1789 1516 1738 1600 1253 901 789 720 663 690 646 622 454 512 274 45 53 0 0 0 0 0 0 0 0 0 0 0 0 1 0 0 3
12 416 950 1816 1768 1851 1900 1990 2122 1933 1566 1590 1734 1288 1162 1123 341 268 193 365 369 220 261 396 320 0 1 6 0 0 0 0 0 0 0 0 0 0 0 0 0 0 0
0 2 3 17 416 1359 1408 1680 1917 1955 1893 1666 1818 1591 884 968 746 21 47 134 244 230 194 203 179 96 7 0 0 0 0 0 0 0 0 0 0 0 0 0 0 0 0
0 0 0 3 3 3 239 775 1319 1686 1716 1557 1756 1564 1674 1223 658 189 0 0 0 9 128 153 118 69 29 4 0 0 0 0 0 0 0 0 0 0 0 0 0 0 0
0 0 0 0 0 0 0 26 171 542 1332 1387 1419 1172 718 484 336 309 209 0 0 0 0 4 15 21 79 1 0 0 0 0 0 0 0 0 0 0 0 0 0 0 0
0 0 0 0 0 0 0 0 0 33 381 777 1197 1316 871 440 344 133 157 7 0 0 0 0 0 0 18 1 0 0 0 0 0 0 0 0 0 0 0 0 0 0 0
0 0 0 0 0 0 0 0 0 0 0 139 747 779 953 833 697 424 211 155 0 0 0 0 0 0 0 0 0 0 0 0 0 0 0 0 0 0 0 0 0 0 0
0 0 0 0 0 0 0 0 0 0 0 0 39 731 919 884 645 679 267 255 68 0 0 0 0 0 0 0 0 0 0 0 0 0 0 0 0 0 0 0 0 0 0
0 0 5 3 1 0 1 1 0 0 0 0 2 0 613 908 540 441 426 378 255 60 0 0 0 0 0 0 0 0 0 0 0 0 0 0 0 0 0 0 0 0 0
1 2 4 5 6 3 7 6 1 0 0 0 0 0 29 355 285 179 76 29 0 23 0 0 0 0 0 0 0 0 0 0 0 0 0 0 0 0 0 0 0 0 0
3 4 2 3 6 6 6 6 4 7 0 0 0 0 0 189 59 4 2 0 0 0 0 0 0 0 0 0 0 0 0 0 0 0 0 0 0 0 0 0 0 0 0
3 6 3 5 6 6 5 4 4 4 7 0 0 0 0 6 1 3 3 1 0 0 0 0 0 0 0 0 0 0 0 0 0 0 0 0 0 0 0 0 0 0 0
2 3 3 3 3 6 3 4 4 3 4 6 1 0 1 11 2 3 2 1 0 0 0 0 0 0 0 0 0 0 0 0 0 0 0 0 0 0 0 0 0 0 0
1 7 3 3 5 5 4 3 5 2 2 4 10 6 0 17 1 3 3 1 0 0 0 0 0 0 0 0 0 0 0 0 0 0 0 0 0 0 0 0 0 0 0
3 3 3 3 5 7 3 5 4 3 5 3 10 11 2 24 6 2 2 1 0 0 0 0 0 0 0 0 0 0 0 0 0 0 0 0 0 0 0 0 0 0 0
0 2 1 2 2 3 5 10 7 4 4 4 5 13 8 13 14 2 0 1 0 0 0 0 0 0 0 0 0 0 0 0 0 0 0 0 0 0 0 0 0 0 0
8 1 2 5 1 2 6 7 4 3 3 2 4 2 22 13 15 12 0 0 0 0 0 0 0 0 0 0 0 0 0 0 0 0 0 0 0 0 0 0 0 0 0
7 3 0 7 5 3 5 4 5 2 4 2 3 3 10 1 21 2 2 0 0 0 0 0 0 0 0 0 0 0 0 0 0 0 0 0 0 0 0 0 0 0 0
2 10 1 2 7 2 3 4 3 2 4 2 4 6 6 0 2 1 1 2 0 0 0 0 0 0 0 0 0 0 0 0 0 0 0 0 0 0 0 0 0 0 0
1 2 5 2 4 1 2 3 2 2 3 4 3 1 0 8 0 1 2 1 1 1 0 0 0 0 0 0 0 0 0 0 0 0 0 0 0 0 0 2 3 0 0
CIN
-121 -118 -123 -128 -124 -100 -58 -25 -16 -8 -9 -2 -1 -2 -1 -8 -6 -10 -13 -39 -46 -41 -40 -43 -39 -117 -197 -218 -261 -169 -222 -183 -186 -178 -138 -105 -85 -51 -14 -0 -2 -5 -4
-153 -151 -150 -0 -0 -3 -65 -46 -17 -9 -6 -2 -0 -1 -1 -0 -13 -10 -4 -4 -40 -51 -33 -29 -80 -157 -148 -185 -138 -194 -151 -133 -130 -145 -138 -121 -115 -113 -89 -49 -18 -8 -4
-185 -190 -180 -0 -0 -0 -44 -73 -55 -40 -31 -14 -2 -1 -1 -2 -2 -3 -0 -0 -20 -40 -40 -45 -102 -124 -63 -55 -86 -102 -124 -131 -215 -201 -328 -20 -359 -297 -252 -202 -115 -70 -34
-213 -209 -214 -107 -0 -0 -0 -0 -87 -49 -33 -22 -6 -0 -1 -1 -4 -2 -0 -1 -4 -3 -54 -69 -97 -130 -46 -10 -10 -72 -214 -0 -0 -0 -0 -0 -0 -0 -0 -0 -130 -327 -288
-273 -253 -239 -238 -193 -172 -155 -104 -92 -60 -67 -55 -20 -3 -0 -6 -11 -3 -1 -1 -0 -1 -6 -89 -87 -76 -46 -25 -37 -93 -0 -0 -0 -0 -0 -0 -0 -0 -0 -0 -0 -0 -360
-174 -210 -179 -165 -152 -100 -65 -43 -30 -23 -29 -24 -17 -14 -10 -23 -27 -19 -6 -1 -0 -1 -1 -23 -76 -95 -74 -87 -29 -0 -0 -0 -0 -0 -0 -0 -0 -0 -0 -0 -0 -0 -0
-65 -69 -70 -58 -45 -31 -19 -12 -10 -11 -19 -1 -3 -2 -8 -55 -86 -71 -68 -36 -14 -11 -10 -0 -12 -33 -124 -0 -0 -0 -0 -0 -0 -0 -0 -0 -0 -0 -0 -0 -0 -0 -0
-291 -257 -144 -7 -1 -1 -10 -5 -3 -1 -2 -7 -1 -1 -1 -2 -170 -232 -229 -129 -103 -119 -79 -19 -12 -0 -0 -2 -0 -0 -0 -0 -0 -0 -0 -0 -0 -0 -0 -0 -0 -0 -0
-0 -0 -0 -236 -229 -44 -38 -26 -1 -12 -1 -2 -1 -3 -13 -1 -16 -455 -375 -236 -141 -120 -136 -147 -148 -174 -155 -0 -0 -0 -0 -0 -0 -0 -0 -0 -0 -0 -0 -0 -0 -0 -0
-0 -0 -0 -0 -0 -0 -213 -144 -17 -2 -3 -5 -4 -3 -9 -38 -30 -167 -0 -0 -0 -99 -124 -101 -124 -135 -231 -273 -0 -0 -0 -0 -0 -0 -0 -0 -0 -0 -0 -0 -0 -0 -0
-0 -0 -0 -0 -0 -0 -0 -489 -301 -140 -27 -5 -5 -2 -102 -126 -132 -119 -163 -5 -0 -0 -0 -195 -258 -275 -251 -19 -0 -0 -0 -0 -0 -0 -0 -0 -0 -0 -0 -0 -0 -0 -0
-0 -0 -0 -0 -0 -0 -0 -0 -0 -264 -190 -51 -2 -3 -10 -89 -129 -205 -186 -64 -0 -0 -0 -0 -0 -0 -244 -10 -0 -0 -0 -0 -0 -0 -0 -0 -0 -0 -0 -0 -0 -0 -0
-0 -0 -0 -0 -0 -0 -0 -0 -0 -0 -0 -248 -33 -11 -2 -3 -8 -64 -111 -151 -0 -0 -0 -0 -0 -0 -0 -0 -0 -0 -0 -0 -0 -0 -0 -0 -0 -0 -0 -0 -0 -0 -0
-0 -0 -0 -0 -0 -0 -0 -0 -0 -0 -0 -2 -380 -32 -3 -7 -19 -19 -91 -53 -211 -0 -0 -0 -0 -0 -0 -0 -0 -0 -0 -0 -0 -0 -0 -0 -0 -0 -0 -0 -0 -0 -0
-0 -0 -0 -1 -1 -2 -2 -1 -0 -0 -0 -0 -1 -0 -45 -10 -64 -91 -67 -41 -61 -221 -0 -0 -0 -0 -0 -0 -0 -0 -0 -0 -0 -0 -0 -0 -0 -0 -0 -0 -0 -0 -0
-1 -1 -0 -0 -0 -0 -1 -0 -0 -0 -0 -0 -0 -0 -65 -148 -162 -259 -317 -372 -12 -128 -0 -0 -0 -0 -0 -0 -0 -0 -0 -0 -0 -0 -0 -0 -0 -0 -0 -0 -0 -0 -0
-0 -0 -0 -1 -0 -0 -0 -0 -1 -0 -1 -0 -0 -0 -0 -194 -332 -138 -0 -0 -0 -0 -0 -0 -0 -0 -0 -0 -0 -0 -0 -0 -0 -0 -0 -0 -0 -0 -0 -0 -0 -0 -0
-0 -0 -1 -0 -0 -0 -1 -0 -0 -0 -0 -0 -0 -0 -0 -4 -0 -0 -0 -0 -0 -0 -0 -0 -0 -0 -0 -0 -0 -0 -0 -0 -0 -0 -0 -0 -0 -0 -0 -0 -0 -0 -0
-0 -1 -0 -0 -0 -0 -0 -0 -0 -0 -0 -0 -2 -0 -0 -2 -0 -0 -0 -0 -0 -0 -0 -0 -0 -0 -0 -0 -0 -0 -0 -0 -0 -0 -0 -0 -0 -0 -0 -0 -0 -0 -0
-0 -0 -0 -0 -0 -0 -0 -0 -0 -0 -0 -0 -0 -0 -0 -0 -0 -0 -0 -0 -0 -0 -0 -0 -0 -0 -0 -0 -0 -0 -0 -0 -0 -0 -0 -0 -0 -0 -0 -0 -0 -0 -0
-0 -0 -0 -0 -0 -0 -0 -0 -0 -0 -0 -0 -0 -0 -0 -0 -0 -0 -0 -0 -0 -0 -0 -0 -0 -0 -0 -0 -0 -0 -0 -0 -0 -0 -0 -0 -0 -0 -0 -0 -0 -0 -0
-0 -0 -0 -0 -0 -0 -0 -0 -0 -0 -0 -0 -0 -0 -1 -0 -0 -0 -0 -1 -0 -0 -0 -0 -0 -0 -0 -0 -0 -0 -0 -0 -0 -0 -0 -0 -0 -0 -0 -0 -0 -0 -0
-0 -0 -0 -0 -0 -0 -0 -0 -0 -0 -0 -0 -0 -0 -0 -0 -2 -1 -0 -0 -0 -0 -0 -0 -0 -0 -0 -0 -0 -0 -0 -0 -0 -0 -0 -0 -0 -0 -0 -0 -0 -0 -0
-1 -1 -0 -0 -0 -0 -0 -0 -0 -0 -0 -0 -0 -0 -0 -1 -9 -0 -0 -0 -0 -0 -0 -0 -0 -0 -0 -0 -0 -0 -0 -0 -0 -0 -0 -0 -0 -0 -0 -0 -0 -0 -0
-1 -1 -1 -0 -0 -0 -0 -0 -0 -0 -0 -0 -0 -0 -0 -0 -31 -0 -0 -0 -0 -0 -0 -0 -0 -0 -0 -0 -0 -0 -0 -0 -0 -0 -0 -0 -0 -0 -1 -0 -3 -0 -0
-2 -0 -0 -0 -0 -0 -0 -0 -0 -0 -0 -0 -0 -5 -3 -1 -0 -0 -0 -0 -0 -0 -0 -0 -0 -0 -0 -0 -0 -0 -0 -0 -0 -0 -0 -0 -0 -0 -0 -3 -1 -1 -0
Wind_Speed
23 26 26 26 26 26 23 20 23 24 23 12 10 18 20 17 17 20 19 13 11 11 12 14 14 13 13 15 16 17 18 19 19 19 19 14 12 12 12 13 18 19 21
13 15 18 23 27 26 26 22 21 25 24 23 20 17 20 16 18 17 17 15 12 11 11 11 14 13 13 15 15 17 18 17 18 19 19 19 18 15 13 14 15 17 19
11 14 17 18 19 24 23 20 21 22 19 20 20 17 17 15 18 17 19 18 10 10 11 11 12 13 14 15 14 16 17 18 18 18 19 20 20 20 17 18 20 20 21
10 14 16 17 16 16 18 20 22 24 23 21 21 20 19 17 16 18 18 18 15 13 10 9 11 13 13 13 15 16 17 16 17 18 19 21 22 22 22 22 22 23 24
6 8 12 15 18 18 19 20 19 19 23 23 23 20 19 18 17 18 20 18 16 15 12 9 12 13 12 13 15 17 16 17 17 18 19 21 23 24 24 25 25 25 26
9 9 11 14 15 18 19 20 21 21 21 22 23 25 22 21 19 19 18 16 15 13 11 11 11 12 14 13 13 15 16 17 19 20 21 21 23 24 25 25 26 27 27
23 19 18 18 16 17 20 22 19 20 20 21 23 25 22 20 19 18 17 16 14 12 12 12 13 13 13 14 14 14 16 18 19 22 22 23 23 24 24 26 26 27 28
31 29 30 25 23 24 23 25 25 27 26 21 23 27 31 22 19 17 17 14 12 12 12 11 13 13 15 13 12 15 16 18 20 22 23 23 24 23 24 25 26 27 28
33 32 32 31 30 28 28 28 31 28 29 31 25 24 27 27 22 22 19 15 15 16 13 12 11 12 13 16 14 16 17 18 19 21 22 22 21 22 23 24 26 28 29
34 34 34 34 34 30 32 26 26 21 28 31 35 27 24 27 26 29 25 23 22 22 20 16 18 17 13 16 16 19 15 17 19 19 20 20 21 22 24 25 26 27 29
37 36 36 38 37 37 38 35 37 39 40 28 29 27 22 23 24 24 29 27 23 20 18 16 17 21 17 19 18 17 17 16 17 19 19 20 21 22 23 25 26 28 29
38 37 39 40 41 40 41 41 41 37 33 46 34 26 21 22 20 21 22 23 22 22 19 18 15 19 13 23 21 17 16 16 17 19 19 19 19 21 23 25 28 30 31
41 42 43 42 42 42 43 43 43 40 38 35 29 30 27 24 24 21 21 23 25 23 21 19 17 15 14 18 21 19 18 17 16 16 17 19 21 22 25 28 31 34 34
45 46 47 46 46 45 44 44 44 45 43 41 42 40 34 29 27 24 23 22 25 26 24 24 18 17 15 15 23 17 18 16 15 16 18 20 22 23 26 31 33 35 35
47 47 48 49 49 49 47 47 45 46 45 43 43 46 44 34 33 29 29 26 24 28 25 22 21 15 14 17 21 20 18 15 16 18 19 21 24 25 28 31 34 34 33
48 49 49 48 48 47 47 47 46 46 46 45 43 44 44 35 34 32 32 30 27 26 28 17 17 13 12 16 20 21 20 16 16 19 20 22 24 27 29 33 33 33 33
49 50 51 52 52 52 51 50 49 50 50 48 46 46 45 38 35 33 32 29 28 25 24 20 14 11 10 17 18 20 20 20 16 19 21 24 25 27 29 31 31 30 30
48 49 51 52 53 53 52 52 54 51 52 53 51 48 45 38 37 34 31 30 28 25 23 20 15 12 11 15 16 18 21 22 22 17 20 22 23 26 28 29 29 28 28
49 49 51 52 53 53 53 53 54 52 51 52 52 51 49 41 40 36 33 30 26 23 21 19 16 12 8 9 14 18 19 23 24 19 20 20 22 24 26 26 25 25 26
50 50 50 51 52 53 52 50 53 51 51 50 51 51 49 44 41 38 34 30 27 23 20 17 15 11 9 10 13 19 21 21 22 21 21 23 24 23 22 23 23 23 24
49 50 52 51 52 53 49 53 54 55 54 51 52 52 49 47 43 39 33 30 28 26 23 20 16 13 12 11 13 17 20 18 20 21 22 23 22 22 19 20 21 21 23
50 51 52 52 53 52 53 56 58 58 54 52 50 50 48 48 43 41 37 33 30 28 26 22 18 17 15 13 12 13 17 18 23 18 23 25 24 25 23 22 19 22 22
50 51 53 52 53 53 55 58 60 58 53 48 46 46 45 46 41 41 40 37 31 30 27 24 22 18 15 13 12 12 14 15 19 17 21 25 24 26 23 21 18 18 20
49 51 54 53 52 53 57 58 59 50 50 42 39 41 43 45 37 37 37 36 31 30 27 23 20 17 14 12 10 13 11 15 19 21 22 27 24 24 22 22 15 16 18
48 49 51 54 53 55 58 58 55 47 45 42 35 34 36 40 32 30 33 35 30 26 21 18 15 13 12 12 10 11 15 19 23 23 19 25 26 24 24 24 18 15 17
47 47 49 52 52 53 56 56 51 44 41 37 28 27 30 33 28 26 28 29 27 25 26 21 16 14 13 13 14 18 17 22 23 25 20 23 23 24 25 18 20 20 21
Wind_Direction
291 265 268 261 272 278 304 318 302 310 317 5 14 351 348 0 3 354 1 26 39 46 48 36 40 42 43 25 16 14 11 4 358 350 321 257 200 191 192 201 215 212 210
329 325 318 304 289 291 294 313 319 313 320 327 338 347 342 354 351 358 5 7 22 28 31 33 25 22 28 21 14 3 357 11 6 352 339 311 281 239 221 217 227 232 226
329 323 320 318 317 306 310 316 319 320 327 329 332 341 341 347 347 354 350 354 16 18 19 22 22 16 7 4 5 356 353 351 355 352 347 329 307 284 241 255 267 267 274
323 320 319 319 321 322 318 315 313 312 316 321 325 327 331 336 341 344 347 346 356 2 13 21 12 14 7 12 350 346 345 351 346 341 336 324 313 308 297 288 273 278 276
325 322 322 319 317 316 315 314 315 315 314 315 316 322 324 326 332 335 334 337 343 345 355 9 358 2 9 6 352 341 340 337 341 338 335 332 317 304 299 297 297 289 293
329 323 322 320 317 315 313 312 311 312 313 314 314 314 315 317 321 325 330 336 337 341 345 354 359 356 349 354 356 347 337 334 327 326 326 326 322 315 308 304 298 301 303
314 316 314 314 312 311 311 311 311 309 309 310 312 312 313 314 316 318 323 328 333 336 335 333 336 341 347 341 342 342 334 329 329 321 321 319 320 318 316 310 309 307 304
310 311 309 309 308 307 309 309 306 303 302 303 301 305 303 310 313 318 320 323 327 330 327 325 324 325 329 333 332 332 330 327 324 323 321 320 318 319 318 317 314 312 310
308 308 306 305 304 305 307 310 302 297 298 295 291 294 302 302 305 311 311 312 311 312 316 313 313 314 317 316 320 321 321 324 325 323 321 323 324 322 322 320 318 314 311
311 307 306 302 298 307 305 314 305 299 294 294 287 287 289 298 298 299 300 301 304 306 306 305 303 304 304 305 306 310 318 319 320 322 322 322 321 320 319 320 321 319 315
310 307 305 301 299 302 301 302 299 293 288 292 290 294 285 287 289 289 295 295 296 290 292 284 287 289 294 293 292 299 304 312 314 316 318 318 319 319 319 318 318 317 315
312 309 307 305 301 300 299 297 295 294 294 282 289 286 280 289 279 283 285 290 284 290 282 288 282 282 287 285 283 289 298 305 308 311 313 315 319 319 318 318 315 312 308
310 308 307 305 304 302 300 296 293 290 289 289 286 279 274 265 274 274 278 286 290 291 292 281 275 270 276 284 276 281 290 297 303 310 311 311 313 315 313 311 307 301 301
307 307 305 304 303 301 300 298 295 290 288 284 284 283 281 273 276 271 274 281 289 289 290 294 275 272 271 274 274 273 286 290 297 305 309 309 311 312 311 305 301 298 299
310 309 306 303 301 298 298 296 294 291 289 286 283 281 281 271 275 273 276 277 277 288 280 288 291 270 274 273 274 271 277 284 294 302 306 308 308 309 308 305 300 299 302
314 311 309 307 305 302 299 296 293 291 288 286 284 284 280 271 272 270 273 273 271 274 285 285 280 271 267 271 275 267 274 283 292 300 304 308 308 306 306 300 298 300 301
317 313 310 307 305 302 299 296 292 289 286 284 282 281 278 272 270 271 271 268 266 265 275 287 281 279 257 264 264 263 270 281 291 299 304 306 307 305 305 302 302 305 306
322 317 314 309 306 304 301 296 293 289 285 283 281 278 275 269 267 268 267 262 261 260 266 270 279 284 258 257 253 261 269 280 289 299 306 307 308 305 305 306 307 309 310
327 324 320 316 311 308 303 299 295 289 285 282 279 276 274 264 263 264 263 260 257 258 260 269 273 276 243 224 248 262 272 278 287 298 304 308 307 307 310 312 313 314 313
332 327 325 322 318 313 307 303 302 292 287 283 280 276 272 263 259 258 257 253 250 248 249 257 266 256 236 238 251 260 272 278 286 297 303 304 305 308 312 315 316 316 316
338 336 329 325 322 319 314 307 303 296 290 283 280 275 270 263 257 252 249 245 242 242 241 247 249 242 241 234 247 260 270 279 287 295 301 302 307 308 312 316 316 321 319
338 339 338 332 327 323 317 310 305 297 290 284 279 276 270 265 253 247 242 240 237 237 237 238 243 239 238 243 241 258 272 281 286 297 299 298 302 304 310 314 317 316 319
338 341 340 336 332 327 323 316 309 300 292 284 277 274 272 266 251 249 243 245 232 235 236 232 234 238 236 236 244 257 275 287 296 303 303 302 302 303 309 314 317 316 317
345 344 342 337 333 332 328 322 318 313 303 286 276 272 268 265 249 246 242 241 232 235 235 233 235 237 241 235 245 269 278 292 301 301 302 298 300 305 312 315 319 321 318
348 347 349 339 338 337 336 332 327 322 314 294 279 270 264 261 247 238 239 237 239 228 224 226 228 234 235 247 254 274 284 287 295 300 301 297 299 306 310 311 320 326 325
348 351 350 345 347 344 342 339 335 330 324 314 295 273 262 254 242 234 235 230 235 241 212 212 220 235 243 257 271 281 287 290 297 298 300 297 302 308 310 317 318 326 326